Location: B�rgermoos
(47.6500°N, 9.0667°E)
Time: 08:06:15
(UTC+00:00)

Transit 4A - Visible Passes

Search period start: 24 July 2021 00:00
Search period end: 03 August 2021 00:00
Orbit: 872 x 972 km, 66.8° (Epoch: 23 July)

Date Brightness Start Highest point End Pass type
(mag) Time Alt. Az. Time Alt. Az. Time Alt. Az.
24 Jul 8.2 00:53:59 33° S 00:56:20 52° ESE 01:02:00 10° NE visible
24 Jul 8.8 02:37:30 10° WSW 02:42:54 36° NW 02:48:15 10° NNE visible
24 Jul 9.8 23:19:32 13° ESE 23:20:12 13° ESE 23:22:43 10° ENE visible
25 Jul 7.8 01:03:02 36° SSW 01:05:33 75° ESE 01:11:24 10° NE visible
25 Jul 9.2 02:47:29 10° W 02:52:27 28° NW 02:57:26 10° NNE visible
25 Jul 9.4 23:28:33 19° ESE 23:29:10 20° ESE 23:33:14 10° ENE visible
26 Jul 7.8 01:12:03 33° SW 01:14:51 80° NW 01:20:43 10° NNE visible
26 Jul 9.6 02:57:36 10° W 03:02:07 22° NNW 03:06:37 10° NNE visible
26 Jul 8.9 23:37:32 28° ESE 23:38:12 29° ESE 23:43:08 10° NE visible
27 Jul 8.1 01:21:02 27° WSW 01:24:13 58° NW 01:29:59 10° NNE visible
27 Jul 9.8 03:07:53 10° WNW 03:11:50 18° NNW 03:15:47 10° NNE visible
27 Jul 8.3 23:46:29 39° SE 23:47:19 41° ESE 23:52:46 10° NE visible
28 Jul 8.6 01:30:00 20° WSW 01:33:39 43° NW 01:39:13 10° NNE visible
28 Jul 10.0 03:18:16 10° WNW 03:21:37 15° NNW 03:24:57 10° NNE visible
28 Jul 7.9 23:55:24 51° SSE 23:56:29 59° ESE 00:02:13 10° NE visible
29 Jul 9.1 01:38:54 14° W 01:43:11 33° NW 01:48:24 10° NNE visible
29 Jul 9.6 22:20:47 15° E 22:20:47 15° E 22:23:28 10° ENE visible
30 Jul 7.7 00:04:17 53° SSW 00:05:44 84° ESE 00:11:36 10° NE visible
30 Jul 9.4 01:47:57 10° W 01:52:47 26° NW 01:57:35 10° NNE visible
30 Jul 9.2 22:29:38 22° ESE 22:29:38 22° ESE 22:33:40 10° ENE visible
31 Jul 7.9 00:13:07 43° SW 00:15:04 71° NW 00:20:54 10° NNE visible
31 Jul 9.8 01:58:08 10° WNW 02:02:27 21° NNW 02:06:45 10° NNE visible
31 Jul 8.6 22:38:26 32° ESE 22:38:26 32° ESE 22:43:27 10° NE visible
01 Aug 8.3 00:21:55 31° WSW 00:24:26 52° NW 00:30:09 10° NNE visible
01 Aug 10.0 02:08:27 10° WNW 02:12:11 17° NNW 02:15:56 10° NNE visible
01 Aug 8.1 22:47:11 46° SE 22:47:27 47° ESE 22:53:01 10° NE visible
02 Aug 8.8 00:30:40 22° W 00:33:55 39° NW 00:39:22 10° NNE visible
02 Aug 10.2 02:18:53 10° NW 02:21:59 14° NNW 02:25:08 10° NNE visible
02 Aug 9.8 21:12:24 11° E 21:12:24 11° E 21:13:03 10° E visible
02 Aug 7.7 22:55:53 60° SSE 22:56:39 67° ESE 23:02:27 10° NE visible
